DateTimeUTC,F1_A11,F1_S11,BsB_S11,BsG_S11,BsR_S11,BbsB_S11,BbsG_S11,BbsR_S11,BaB_A11,BaG_A11,BaR_A11,Tu_S11,T_S11,Uu_S11,U_S11,P_S11,T1_A11
2021-03-02T08:00:00Z,00000200,21000000,,,,,,,-000.02,-000.30,0000.22,15.7,23.4,,00.0,0648.5,30.9
2021-03-02T08:01:00Z,00000200,21000000,,,,,,,-000.14,0000.07,-000.04,15.7,23.4,,00.0,0648.5,30.9
2021-03-02T08:02:00Z,00000200,21000000,,,,,,,-000.29,-000.06,-000.29,15.7,23.4,,00.0,0648.5,30.9
2021-03-02T08:03:00Z,00000200,61000000,,,,,,,0000.01,-000.24,-000.15,15.7,23.4,,00.0,0648.6,30.9
2021-03-02T08:04:00Z,00000200,41000000,0001.41,0000.69,0000.50,-000.07,0000.00,0000.21,0000.35,0000.05,0000.30,15.9,23.2,,00.0,0649.6,30.9
2021-03-02T08:05:00Z,00000200,01000000,0001.35,0000.84,0000.64,0000.24,0000.04,0000.22,0000.33,0000.84,0000.51,16.0,23.2,,00.0,0649.7,30.9
2021-03-02T08:06:00Z,00000200,01000000,0001.04,0001.09,0000.59,0000.21,0000.34,0000.41,0000.32,0000.13,0000.23,16.0,23.2,,00.0,0649.7,30.9
2021-03-02T08:07:00Z,00000200,01000000,0001.56,0000.95,0000.46,0000.41,0000.00,0000.09,0000.44,0000.51,0000.21,16.1,23.2,,00.0,0649.7,30.8
2021-03-02T08:08:00Z,00000200,01000000,0001.70,0000.80,0000.21,0000.19,0000.13,-000.21,0001.03,0000.50,0000.51,16.1,23.2,,00.0,0649.7,30.9
2021-03-02T08:09:00Z,00000200,01000000,0001.72,0000.73,0000.36,-000.10,0000.22,0000.04,0000.32,0000.85,0000.57,16.1,23.2,,00.0,0649.7,30.9
2021-03-02T08:10:00Z,00000200,01000000,0000.85,0000.94,0000.31,0000.63,0000.26,-000.08,0000.69,0000.51,0000.10,16.1,23.2,,00.0,0649.7,30.9
2021-03-02T08:11:00Z,00000200,01000000,0001.20,0000.78,0000.46,0000.10,0000.25,0000.10,0000.49,0000.57,0000.63,16.1,23.1,,00.0,0649.7,30.9
2021-03-02T08:12:00Z,00000200,01000000,0001.55,0000.77,0000.43,-000.15,0000.28,0000.36,0000.55,0000.07,0000.47,16.0,23.1,,00.0,0649.7,30.9
2021-03-02T08:13:00Z,00000200,01000000,0001.27,0000.89,0000.65,0000.13,0000.16,-000.00,0000.68,0001.05,0000.32,15.9,23.1,,00.0,0649.8,30.9
2021-03-02T08:14:00Z,00000200,01000000,0002.26,0000.74,0000.41,0000.02,0000.13,0000.12,-000.02,-000.24,-000.32,15.9,23.1,,00.0,0649.8,30.8
2021-03-02T08:15:00Z,00000200,01000000,0001.02,0000.65,0000.60,-000.29,0000.02,0000.16,0000.37,0000.38,0000.20,15.8,23.0,,00.0,0649.8,30.8
2021-03-02T08:16:00Z,00000200,01000000,0001.55,0000.77,0000.75,-000.04,0000.25,0000.03,0000.30,-000.16,0000.42,15.8,23.0,,00.0,0649.8,30.8
2021-03-02T08:17:00Z,00000200,01000000,0001.61,0000.85,0000.54,0000.17,0000.46,0000.21,0000.22,0000.57,0000.09,15.8,23.0,,00.0,0649.8,30.8
2021-03-02T08:18:00Z,00000200,01000000,0000.85,0001.07,0000.35,-000.38,0000.08,0000.09,0000.42,-000.00,0000.09,15.8,23.0,,00.0,0649.8,30.8
2021-03-02T08:19:00Z,00000200,01000000,0001.49,0000.67,0000.49,0000.13,0000.19,0000.24,0000.22,0000.16,0000.20,15.9,23.0,,00.0,0649.8,30.8
2021-03-02T08:20:00Z,00000200,01000000,0001.01,0000.76,0000.46,-000.14,-000.04,0000.09,0000.37,0000.55,0000.59,15.9,23.0,,00.0,0649.8,30.8
2021-03-02T08:21:00Z,00000200,01000000,0001.18,0000.71,0000.38,0000.18,0000.12,0000.25,0000.57,0000.63,0000.35,15.9,23.0,,00.0,0649.8,30.8
2021-03-02T08:22:00Z,00000200,01000000,0001.34,0000.89,0000.38,0000.69,0000.06,0000.14,0000.31,0000.51,0000.09,16.0,23.1,,00.0,0649.8,30.8
2021-03-02T08:23:00Z,00000200,01000000,0001.71,0000.92,0000.67,-000.07,0000.32,0000.35,0000.23,0000.09,0000.23,16.0,23.1,,00.0,0649.8,30.9
2021-03-02T08:24:00Z,00000200,01000000,0001.28,0000.68,0000.61,-000.06,0000.29,0000.08,0000.03,0000.25,0000.09,16.0,23.1,,00.0,0649.8,30.9
2021-03-02T08:25:00Z,00000200,01000000,0001.75,0001.21,0000.53,0000.56,0000.13,0000.25,0000.63,0000.60,0000.31,16.0,23.0,,00.0,0649.9,30.9
2021-03-02T08:26:00Z,00000200,01000000,0001.21,0001.00,0000.27,0000.29,0000.15,0000.08,0000.32,0000.30,0000.33,15.9,23.0,,00.0,0649.9,30.9
2021-03-02T08:27:00Z,00000200,01000000,0000.74,0001.02,0000.36,-000.14,0000.18,0000.05,0000.31,0000.13,-000.06,15.8,23.0,,00.0,0650.0,30.8
2021-03-02T08:28:00Z,00000200,01000000,0001.55,0000.88,0000.57,0000.02,0000.28,0000.04,0000.21,-000.15,0000.31,15.8,23.0,,00.0,0650.0,30.8
2021-03-02T08:29:00Z,00000200,01000000,0001.44,0000.81,0000.34,-000.15,0000.04,0000.14,0000.41,0000.64,0000.07,15.7,22.9,,00.0,0649.9,30.8
2021-03-02T08:30:00Z,00000200,01000000,0000.90,0000.80,0000.51,-000.02,0000.13,0000.14,0000.43,0000.28,0000.66,15.7,22.9,,00.0,0649.9,30.8
2021-03-02T08:31:00Z,00000200,01000000,0000.92,0000.58,0000.19,-000.44,0000.23,-000.05,0000.65,0000.67,0000.39,15.7,22.8,,00.0,0650.0,30.8
2021-03-02T08:32:00Z,00000200,01000000,0001.29,0001.13,0000.20,0000.57,0000.38,-000.11,0000.94,0000.38,0000.26,15.7,22.9,,00.0,0650.0,30.8
2021-03-02T08:33:00Z,00000200,01000000,0001.02,0000.65,0000.83,0000.10,0000.26,0000.06,0000.44,0000.26,0000.26,15.7,22.9,,00.0,0650.1,30.8
2021-03-02T08:34:00Z,00000200,01000000,0001.17,0000.78,0000.51,-000.11,0000.20,0000.02,0000.22,0000.33,0000.17,15.7,22.9,,00.0,0650.1,30.8
2021-03-02T08:35:00Z,00000200,01000000,0000.97,0000.73,0000.50,0000.15,0000.20,0000.14,0000.32,0000.31,0000.36,15.8,22.9,,00.0,0650.1,30.8
2021-03-02T08:36:00Z,00000200,01000000,0001.16,0000.74,0000.71,0000.19,0000.20,0000.15,0000.38,0000.39,0000.24,15.8,22.9,,00.0,0650.2,30.8
2021-03-02T08:37:00Z,00000200,01000000,0001.90,0000.89,0000.33,-000.06,0000.35,-000.01,0000.43,0000.48,0000.01,15.8,22.9,,00.0,0650.2,30.8
2021-03-02T08:38:00Z,00000200,01000000,0000.61,0000.84,0000.58,0000.17,0000.10,0000.22,0000.32,0000.21,0000.42,15.9,23.0,,00.0,0650.2,30.8
2021-03-02T08:39:00Z,00000200,01000000,0001.41,0000.94,0000.54,0000.46,0000.30,0000.20,0000.38,0000.97,0000.36,15.9,23.0,,00.0,0650.3,30.8
2021-03-02T08:40:00Z,00000200,01000000,0001.42,0000.87,0000.39,0000.11,0000.19,-000.07,0000.13,0000.01,0000.40,15.9,23.0,,00.0,0650.3,30.9
2021-03-02T08:41:00Z,00000200,01000000,0001.84,0001.08,0000.29,-000.26,0000.29,-000.03,0000.40,0000.28,0000.02,15.9,22.9,,00.0,0650.3,30.9
2021-03-02T08:42:00Z,00000200,01000000,0000.95,0000.67,0000.59,0000.02,0000.06,0000.10,0000.21,0000.07,0000.00,15.8,22.9,,00.0,0650.3,30.8
2021-03-02T08:43:00Z,00000200,01000000,0001.48,0000.81,0000.79,0000.26,0000.32,0000.21,0000.11,-000.00,0000.23,15.7,22.9,,00.0,0650.3,30.8
2021-03-02T08:44:00Z,00000200,01000000,0001.34,0000.58,0000.43,0000.01,0000.14,0000.34,0000.41,0000.42,0000.48,15.7,22.9,,00.0,0650.3,30.8
2021-03-02T08:45:00Z,00000200,01000000,0001.31,0000.75,0000.31,0000.04,0000.17,0000.22,0000.55,0000.56,-000.08,15.6,22.8,,00.0,0650.4,30.8
2021-03-02T08:46:00Z,00000200,01000000,0001.31,0000.73,0000.48,-000.30,0000.19,0000.26,0000.53,-000.02,0000.29,15.6,22.8,,00.0,0650.4,30.8
2021-03-02T08:47:00Z,00000200,01000000,0001.45,0001.16,0000.27,0000.09,0000.20,0000.22,0000.31,0000.08,0000.39,15.7,22.8,,00.0,0650.4,30.8
2021-03-02T08:48:00Z,00000200,01000000,0000.93,0000.93,0000.46,0000.11,0000.17,0000.03,0000.33,0000.61,0000.19,15.7,22.8,,00.0,0650.4,30.8
2021-03-02T08:49:00Z,00000200,01000000,0001.05,0001.04,0000.51,0000.36,0000.04,0000.14,0000.40,0000.55,0000.17,15.7,22.8,,00.0,0650.4,30.8
2021-03-02T08:50:00Z,00000200,01000000,0001.21,0000.71,0000.60,-000.11,0000.10,0000.18,0000.38,-000.06,0000.23,15.8,22.9,,00.0,0650.4,30.8
2021-03-02T08:51:00Z,00000200,01000000,0001.52,0000.84,0000.54,0000.63,0000.13,0000.07,0000.40,0000.15,0000.24,15.8,22.9,,00.0,0650.4,30.8
2021-03-02T08:52:00Z,00000200,01000000,0001.62,0000.96,0000.75,-000.18,0000.17,0000.09,0000.46,0000.93,0000.56,15.8,22.9,,00.0,0650.3,30.8
2021-03-02T08:53:00Z,00000200,01000000,0000.96,0000.99,0000.30,0000.12,0000.19,0000.10,0000.45,0000.43,0000.21,15.9,22.9,,00.0,0650.3,30.8
2021-03-02T08:54:00Z,00000200,01000000,0001.08,0000.75,0000.47,-000.18,0000.17,-000.05,0000.35,0000.42,0000.36,15.9,22.9,,00.0,0650.3,30.8
2021-03-02T08:55:00Z,00000200,01000000,0001.75,0000.83,0000.28,0000.03,0000.24,0000.24,0000.33,0000.29,0000.09,15.9,22.9,,00.0,0650.3,30.8
2021-03-02T08:56:00Z,00000200,01000000,0001.70,0000.81,0000.26,-000.19,0000.30,0000.10,0000.36,0000.27,0000.54,16.0,23.0,,00.0,0650.3,30.9
2021-03-02T08:57:00Z,00000200,41000000,,,,,,,0000.82,0000.91,0000.48,16.0,23.0,,00.0,0650.5,30.9
2021-03-02T08:58:00Z,00000200,61000000,,,,,,,-000.06,0000.25,-000.24,15.6,23.2,,00.0,0649.4,30.9
2021-03-02T08:59:00Z,00000200,21000000,,,,,,,-000.50,-000.84,-000.24,15.5,23.3,,00.0,0649.4,30.9
